User: anonymous   Login
Location: Asheville, NC
(35.6000°N, 82.5500°W)
Time: 04:48:55
(UTC-05:00)
Language:

Iridium 19 - Orbit

View from above orbital plane
View from above orbital plane
View from above satellite
View from above satellite

Ground track
Ground track

The orbit data is extracted from the following two-line orbital elements,

1 24965U 97056A   18022.90854754 +.00213640 -11677-5 +59161-3 0  9997
2 24965 086.3878 222.8560 0277827 349.2583 010.2812 15.52327519064622
Epoch (UTC): 22 January 2018 21:48:18
Eccentricity: 0.0277827
inclination: 86.3878°
perigee height: 221 km
apogee height: 598 km
right ascension of ascending node: 222.8560°
argument of perigee: 349.2583°
revolutions per day: 15.52327519
mean anomaly at epoch: 10.2812°
orbit number at epoch: 6462

The dashed part of the orbit path shows where the satellite is in the earth's shadow,  

DLR